• Join FlightAware (Why Join?)
  • Login
  • US Flag 
11:41AM EST


 

Airport Tracker/Info


-or-


 

Live Flight TrackerFlight Track Log ✈ N488VC ✈ 01-Jul-2013 ✈ KIAD - KHPN

Flight Track Log - Related Links

Times and Time Zones

All times are in EDT time to prevent confusion due to time zone crossing. See the N488VC flight status page for this flight to view local times or setup timezone preferences in your user account.

Time Position Orientation Groundspeed Altitude Reporting Facility
EDT Latitude Longitude Course Direction KTS MPH feet Rate Location/Type
03:10PM 38.9667 -77.5500 North 243 280 3,600  Level Potomac TRACON
03:12PM 39.0708 -77.6583 321° Northwest 284 327 7,000 2,160 Climbing Washington Center
03:13PM 39.1456 -77.6683 354° North 268 308 9,900 2,400 Climbing Washington Center
03:14PM 39.2400 -77.6308 17° North 302 348 11,800 1,860 Climbing Washington Center
03:15PM 39.3450 -77.5856 18° North 350 403 13,700 1,860 Climbing Washington Center
03:16PM 40.0800 -77.4333 North  Level FlightAware Approximate
03:18PM 39.6486 -77.4581 18° North 404 465 18,800  Level New York Center
03:19PM 39.7550 -77.4575 360° North 410 472 20,300 1,620 Climbing New York Center
03:20PM 39.8742 -77.4525 North 415 478 22,100 1,800 Climbing New York Center
03:21PM 39.9953 -77.4506 North 425 489 23,900 2,100 Climbing New York Center
03:22PM 40.1122 -77.4481 North 425 489 26,300 1,860 Climbing New York Center
03:23PM 40.2500 -77.4450 North 430 495 27,700 1,200 Climbing New York Center
03:24PM 40.3792 -77.4439 360° North 443 510 28,800 600 Climbing New York Center
03:25PM 40.5150 -77.4406 North 466 536 29,000 60 Climbing New York Center
03:26PM 40.6589 -77.4383 North 498 573 29,000  Level New York Center
03:27PM 40.8050 -77.4361 North 515 593 29,000  Level New York Center
03:28PM 40.9511 -77.4311 North 526 605 29,000  Level New York Center
03:29PM 41.1006 -77.4072 North 531 611 29,000  Level New York Center
03:30PM 41.2217 -77.2894 36° Northeast 516 594 29,000  Level New York Center
03:31PM 41.2992 -77.1256 58° Northeast 491 565 29,000  Level New York Center
03:32PM 41.3728 -76.9583 60° Northeast 505 581 29,000  Level New York Center
03:33PM 41.4461 -76.7878 60° Northeast 516 594 29,000 -240 Level New York Center
03:34PM 41.5192 -76.6169 60° Northeast 521 600 28,600 -1,560 Descending New York Center
03:36PM 41.6775 -76.2511 60° Northeast 495 570 24,000 -1,440 Descending Boston Center
03:37PM 41.7431 -76.0936 61° Northeast 487 560 24,000  Level Boston Center
03:38PM 41.8108 -75.9331 60° Northeast 487 560 24,000  Level Boston Center
03:39PM 41.8761 -75.7750 61° Northeast 487 560 24,000  Level Boston Center
03:40PM 41.9389 -75.6219 61° Northeast 476 548 24,000  Level Boston Center
03:41PM 42.0036 -75.4631 61° Northeast 476 548 24,000  Level Boston Center
03:42PM 42.0661 -75.3094 61° Northeast 470 541 24,000 -780 Level Boston Center
03:43PM 42.1178 -75.1494 66° East 465 535 22,500 -2,460 Descending Boston Center
03:44PM 42.1381 -75.0019 79° East 434 499 19,100 -2,280 Descending Boston Center
03:45PM 42.1186 -74.8389 99° East 434 499 18,000 -1,200 Descending Boston Center
03:46PM 42.0694 -74.7028 116° Southeast 407 468 16,800 -1,680 Descending Boston Center
03:47PM 42.0075 -74.5553 119° Southeast 401 461 14,700 -2,040 Descending Boston Center
03:48PM 41.9597 -74.4364 118° Southeast 401 461 12,800 -1,740 Descending Boston Center
03:49PM 41.8825 -74.3222 132° Southeast 392 451 11,200 -900 Descending Boston Center
03:50PM 41.8067 -74.2450 143° Southeast 374 430 11,000 -600 Descending Boston Center
03:51PM 41.7306 -74.1703 144° Southeast 336 387 10,100 -1,200 Descending Boston Center
03:52PM 41.6753 -74.1161 144° Southeast 292 336 8,700 -1,320 Descending Boston Center
03:53PM 41.6092 -74.0697 152° Southeast 269 310 7,500 -1,200 Descending Boston Center
03:54PM 41.5167 -74.0167 157° South 255 293 6,100 -840 Descending New York TRACON
03:55PM 41.4500 -73.9667 151° Southeast 269 310 5,700 -1,200 Descending New York TRACON
03:56PM 41.3833 -73.9333 159° South 249 287 3,700 -1,440 Descending New York TRACON
03:57PM 41.3333 -73.9000 153° Southeast 220 253 3,000 -240 Descending New York TRACON
03:59PM 41.2333 -73.8333 153° Southeast 190 219 3,000 -60 Level New York TRACON
04:00PM 41.1833 -73.8000 153° Southeast 145 167 2,900 -420 Descending New York TRACON
04:01PM 41.1500 -73.7667 143° Southeast 134 154 2,200 -660 Descending New York TRACON
04:02PM 41.1167 -73.7500 159° South 134 154 1,600 -660 Descending New York TRACON
04:03PM 41.1000 -73.7333 143° Southeast 131 151 900 -720 Descending New York TRACON
04:05PM 41.0668 -73.6996 246° West  Level FlightAware Approximate
04:12PM 41.0667 -73.7000 246° West  Level FlightAware Approximate
04:13PM 41.0669 -73.7076 246° West  Level Estimated